Regional Weather Roundup
Issued by NWS

Home | Current Version | Previous Version | Graphics & Text | Print | Product List | Glossary On
Versions: 1 2 3 4 5 6 7 8 9 10 11 12 13 14 15 16 17 18 19 20 21 22 23 24 25 26 27 28 29 30 31 32 33 34 35 36 37 38 39 40 41 42 43 44 45 46 47 48 49 50
438
ASUS43 KIND 051309
RWRIN

WEATHER ROUNDUP FOR INDIANA
NATIONAL WEATHER SERVICE INDIANAPOLIS IN
800 AM EST MON DEC 05 2016

NOTE: "FAIR" INDICATES FEW OR NO CLOUDS BELOW 12,000 FEET WITH NO
SIGNIFICANT WEATHER AND/OR OBSTRUCTIONS TO VISIBILITY.

* - STATION DOES NOT REPORT WEATHER SUCH AS PRECIPITATION OR FOG.

+ - STATION NOT QUALITY CONTROLLED BY THE NATIONAL WEATHER SERVICE.
    USE DATA WITH CAUTION...ESPECIALLY DEWPOINT AND RELATIVE
    HUMIDITY OBSERVATIONS.

INZ001>003-010>013-019-020-051400-
NORTHWEST INDIANA

CITY           SKY/WX    TMP DP  RH WIND       PRES   REMARKS
GARY /AIRPORT/ CLOUDY    34  32  93 SW6       30.04R WCI  29
KNOX *+        CLOUDY    32  25  74 W5        30.03S WCI  27
LA PORTE +     CLOUDY    33  33 100 CALM      30.02S
MICHIGAN CITY+ CLOUDY    32  32 100 S5        30.02F WCI  27
MONTICELLO +   CLOUDY    32  28  85 SW5       30.06R WCI  27
RENSSELAER +   CLOUDY    32  32 100 SW7       30.05S WCI  26
VALPARAISO     CLOUDY    33  30  88 MISG      30.03S

$$

LMZ046-743>745-051400-
SOUTHERN LAKE MICHIGAN

STATION/POSITION TIME  TEMP    WIND        PRES    WAVE
                       AIR SEA DIR/SP/G            HT
                 (UTC) (F)     (DEG/KT/KT) (MB)    (FT)
BURNS HARBOR     1240   34     200/  5/ 10 1017.3R

$$

INZ004-005-014>016-021>024-051400-
NORTH CENTRAL INDIANA

CITY           SKY/WX    TMP DP  RH WIND       PRES   REMARKS
GOSHEN         CLOUDY    33  28  81 W8        30.02S WCI  26
LOGANSPORT +   CLOUDY    32  30  93 SW8       30.07R WCI  25
PERU/GRISSOM   CLOUDY    32  32  97 SW6       30.04R WCI  27
ROCHESTER +    CLOUDY    34  32  93 W5        30.05R WCI  30
SOUTH BEND     CLOUDY    32  30  92 SW8       30.02S WCI  25
WARSAW +       CLOUDY    32  28  86 W3        30.03S

$$

INZ006>009-017-018-025>027-051400-
NORTHEAST INDIANA

CITY           SKY/WX    TMP DP  RH WIND       PRES   REMARKS
ANGOLA *+      CLOUDY    34  30  86 W5        30.02R WCI  30
AUBURN +       CLOUDY    32  30  93 W5        30.05R WCI  27
FORT WAYNE     CLOUDY    33  29  85 W8        30.06R WCI  26
HUNTINGTON +   CLOUDY    32  31  94 W3        30.06R
KENDALLVILLE + CLOUDY    32  30  92 W5        30.02S WCI  27

$$

INZ028-029-035-036-043>045-051>053-051400-
WEST CENTRAL INDIANA

CITY           SKY/WX    TMP DP  RH WIND       PRES   REMARKS
CRAWFORDSVL +  CLOUDY    32  32 100 CALM      30.07R
GREENCASTLE +  CLOUDY    32  32 100 CALM      30.08R
LAFAYETTE      CLOUDY    33  31  92 SW5       30.08R WCI  29
TERRE HAUTE    CLOUDY    35  29  78 CALM      30.09R

$$

INZ030>032-037>040-046>048-054>057-064-065-051400-
CENTRAL INDIANA

CITY           SKY/WX    TMP DP  RH WIND       PRES   REMARKS
CP ATTERBURY + CLOUDY    36  32  87 CALM      30.10R
COLUMBUS       CLOUDY    36  32  87 CALM      30.11R
FISHERS *+     CLOUDY    32  32 100 CALM      30.08
FRANKFORT +    CLOUDY    35  32  91 SW3       30.08S
GREENWOOD *+   CLOUDY    35  31  87 CALM      30.08S
INDIANAPOLIS   CLOUDY    34  29  82 W5        30.07S WCI  30
-EAGLE CREEK   CLOUDY    35  29  78 SW3       30.07R
KOKOMO +       CLOUDY    32  30  92 W7        30.07R WCI  26
MARION +       CLOUDY    32  30  93 W6        30.07R WCI  27
MT COMFORT *+  CLOUDY    34  30  86 CALM      30.07S
SHELBYVILLE    CLOUDY    35  30  82 W5        30.07R WCI  31
ZIONSVILLE +   CLOUDY    32  30  92 SW3       30.07S

$$

INZ033-034-041-042-049-050-058-059-051400-
EAST CENTRAL INDIANA

CITY           SKY/WX    TMP DP  RH WIND       PRES   REMARKS
MUNCIE         CLOUDY    35  30  82 W5        30.06R WCI  31

$$

INZ060-061-067>069-081>083-085>088-051400-
SOUTHWEST INDIANA

CITY           SKY/WX    TMP DP  RH WIND       PRES   REMARKS
EVANSVILLE     CLOUDY    38  32  79 E6        30.09R
HUNTINGBURG *+ CLOUDY    36  30  80 NE3       30.09R
WASHINGTON +   CLOUDY    36  32  87 CALM      30.10R

$$

INZ062-063-066-070>080-084-089>092-051400-
SOUTH CENTRAL AND SOUTHEAST INDIANA

CITY           SKY/WX    TMP DP  RH WIND       PRES   REMARKS
BLOOMINGTON    CLOUDY    35  29  78 CALM      30.08R
MADISON *+     CLOUDY    37  32  81 CALM      30.10S
NORTH VERNON + CLOUDY   N/A N/A N/A CALM      30.10R
SEYMOUR +      CLOUDY    37  32  81 CALM      30.10R

$$





USA.gov is the U.S. government's official web portal to all federal, state and local government web resources and services.